Regional Weather Roundup
Issued by NWS San Diego, CA

Home | Current Version | Previous Version | Text Only | Print | Product List | Glossary On
Versions: 1 2 3 4 5 6 7 8 9 10 11 12 13 14 15 16 17 18 19 20 21 22 23 24 25 26 27 28 29 30 31 32 33 34 35 36 37 38 39 40 41 42 43 44 45 46 47 48 49 50
000
ASUS46 KSGX 272010
RWRSGX

SAN DIEGO HOURLY WEATHER ROUNDUP
NATIONAL WEATHER SERVICE SAN DIEGO CA
1200 PM PST THU NOV 27 2014

NOTE: "FAIR" INDICATES FEW OR NO CLOUDS BELOW 12,000 FEET WITH NO
SIGNIFICANT WEATHER AND/OR OBSTRUCTIONS TO VISIBILITY.

CAZ042-043-060-061-PZZ750-775-272100-

GREATER SAN DIEGO AREA

CITY           SKY/WX    TMP DP  RH WIND       PRES   REMARKS
LINDBERGH FLD  MOSUNNY   84  21  10 NW7       30.05F
POINT LOMA       N/A     85  20   9 NW10        N/A
NATIONAL CITY    N/A     84  38  19 W1        30.04F
IMPERIAL BEACH SUNNY     75  53  46 SW10      30.04F
BROWN FIELD    SUNNY     87  15   7 W7        30.05F
MIRAMAR MCAS   SUNNY     89  15   6 N6        30.05F
MONTGOMERY FLD SUNNY     89  21   8 VRB3      30.05F

$$

NORTH SAN DIEGO COUNTY

CITY           SKY/WX    TMP DP  RH WIND       PRES   REMARKS
CAMP PENDLETON SUNNY     90  17   7 SW8       30.03F
OCEANSIDE AP   SUNNY     84  35  17 W9        30.03F
OCEANSIDE HBR    N/A     74  48  40 W5        30.07F
VISTA            N/A     88  31  13 NW1       30.03F
CARLSBAD       SUNNY     79  44  28 W8        30.04F
DEL MAR          N/A     83  23  11 W1        30.07F
LA JOLLA SCRIP   N/A     80  28  15 CALM      30.02F
FALLBROOK        N/A     89  10   5 W6        30.04F
ESCONDIDO        N/A     87  29  12 CALM      30.05F
SAN MARCOS       N/A     86  25  11 SW2       30.03F
POWAY            N/A     86  28  12 CALM      30.07F

$$

EAST SAN DIEGO COUNTY

CITY           SKY/WX    TMP DP  RH WIND       PRES   REMARKS
RAMONA         NOT AVBL
SANTEE LAKES     N/A     89  30  12 CALM      30.05F
LA MESA          N/A     87  31  13 NW5       29.99F
JAMUL            N/A     87  26  11 NW3       30.04F
DESCANSO N       N/A     83   6   5 E8        29.95F
MT. LAGUNA OBS   N/A     72  10   9 NE6       29.85F
CAMPO            N/A     81  15   8 E20       30.11F

$$

ORANGE COUNTY AND THE LOS ANGELES BASIN

CITY           SKY/WX    TMP DP  RH WIND       PRES   REMARKS
JOHN WAYNE AP  PTSUNNY   86  33  15 NW3       30.05F
LAKE FOREST FR   N/A     88  20   8 NE1       29.94F
SANTA ANA        N/A     87  41  20 CALM      30.00F
HUNTINGTON BCH   N/A     77  46  32 CALM      30.08F
LOS ALAMITOS   FAIR      85  35  16 VRB1      30.05F
FULLERTON      SUNNY     86  29  12 W6        30.04F
LONG BEACH     SUNNY     84  28  13 CALM      30.05F
L.A. AP        PTSUNNY   82  29  14 W7        30.06F
L.A. DOWNTOWN  SUNNY     85  20   9 CALM      30.05F

$$

THE INLAND EMPIRE

CITY           SKY/WX    TMP DP  RH WIND       PRES   REMARKS
CORONA         SUNNY     85  30  13 CALM      30.07F
CHINO          PTSUNNY   84  27  12 CALM      30.08F
ONTARIO        PTSUNNY   86  18   8 VRB3      30.08F
SAN BERNARDINO PTSUNNY   84  18   8 CALM      30.09F
RIVERSIDE AP   SUNNY     86  18   8 CALM      30.08F
RIV CYN CREST    N/A     86  42  21 E2          N/A
MORENO VALLEY    N/A     85  22   9 E6        29.29F
MARCH ARB      SUNNY     83  15   7 SE3       30.10F
HORSETHIEF CYN   N/A     85  14   7 CALM      30.09F
PERRIS           N/A     82  23  11 CALM      30.13F
MENIFEE          N/A     85  28  12 CALM      30.18F
HEMET EAST       N/A     83  16   8 CALM      30.07F
FRENCH VALLEY  FAIR      84  14   7 CALM      30.09F
TEMECULA         N/A     79  34  19 CALM      30.04F

$$

SAN BERNARDINO AND RIVERSIDE COUNTY MOUNTAINS

CITY           SKY/WX    TMP DP  RH WIND       PRES   REMARKS
BIG BEAR AP    SUNNY     66   5   9 W8        30.38F
ANGELUS OAKS     N/A     70  22  16 CALM      30.08F
PINE COVE        N/A     70   6   8 SW2       30.10F

$$

SOUTHERN DESERT INCLUDING THE COACHELLA VALLEY

CITY           SKY/WX    TMP DP  RH WIND       PRES   REMARKS
PALM SPRINGS   SUNNY     81  17   9 CALM      30.13F
THOUSAND PALMS   N/A     79  24  13 SW2       30.08F
PALM DESERT      N/A     82  35  18 CALM        N/A
THERMAL        SUNNY     81  24  12 VRB5      30.09F
BLYTHE         SUNNY     74  19  12 CALM      30.14F
IMPERIAL AP    SUNNY     78  33  19 CALM      30.10F
EL CENTRO NAS  SUNNY     79  27  14 NE5       30.10F
YUMA AZ        MOSUNNY   80  23  12 NE9       30.10F
MEXICALI       SUNNY     79  23  12 W6        30.12

$$

UPPER DESERT

CITY           SKY/WX    TMP DP  RH WIND       PRES   REMARKS
VICTORVILLE AP MOSUNNY   66  14  13 N5        30.23F
HESPERIA         N/A     67  21  17 CALM      30.34F
APPLE VALLEY     N/A     70  16  13 SW1       30.23F
PALMDALE       SUNNY     64  14  14 NW3       30.24F
LANCASTER      MOSUNNY   65  15  14 SE3       30.23F
EDWARDS AFB    PTSUNNY   59  12  15 CALM      30.21F
DAGGETT        MOSUNNY   67   9  10 CALM      30.22F
29 PALMS N     SUNNY     71  17  12 CALM      30.25F
NEEDLES        SUNNY     73  21  14 NE6       30.18F

$$

REGIONAL REPORTS

CITY           SKY/WX    TMP DP  RH WIND       PRES   REMARKS
SANTA BARBARA  SUNNY     79  41  25 W7        30.06F
SANDBERG       SUNNY     72  15  11 E13       30.29F
MT. WILSON       N/A     73   9   8 SW5         N/A
LAS VEGAS NV   CLOUDY    63  20  19 S6        30.21F
PHOENIX AZ     MOSUNNY   82  21  10 VRB3      30.11F
TIJUANA        SUNNY     88  12   6 NW7       30.07F
ENSENADA NW      N/A     76  32  20 W6        30.02F

$$

OFFSHORE ISLANDS

CITY           SKY/WX    TMP DP  RH WIND       PRES   REMARKS
CATALINA ARPT  SUNNY    N/A N/A N/A W7        30.13F

$$

MARINE AND OFFSHORE BUOY REPORTS

STATION/POSITION SKY/WX   TEMP    WIND        PRES    SWELL
                          AIR SEA DIR/SP/G            HT/PER/DIR
                          (F)     (DEG/KT/KT) (MB)    (FT/S/D)
TANNER BANKS               65 66  330/  6/  6 1018.0F   3/310/11
S CLEMENTE BASIN           68 67  330/  4/  4 1017.4F   2/270/14
SAN NICOLAS IS.               63                N/A     2/290/13
SO. S. ROSA ISLA           63 63  320/  8/  8 1017.9F   2/11
W. S. BARBARA CH           63 63  310/ 10/ 12 1017.9F   3/280/11
M. S. BARBARA CH           66 66  280/  2/  2 1019.2F
S. MONICA BASIN            67 66  310/  2/  4 1018.4F   2/200/14
S PEDRO CHANNEL               67                N/A     2/270/12
DANA POINT                    67                N/A     2/250/12
CMP PENDLETON NS              66                N/A     2/220/14
OCEANSIDE OFFSHR              66                N/A     2/250/12
TORREY PINES OTR              67                N/A     2/280/12
LA JOLLA 1                 78 65   CALM  /  1 1017.6F
MISSION BAY BUOY              67                N/A     2/270/13
SAN DIEGO BAY                 66              1017.8F
POINT LOMA SOUTH              67                N/A     2/240/11

$$



USA.gov is the U.S. government's official web portal to all federal, state and local government web resources and services.